| time (UTC) | temp F | wind direction | speed MPH | gust MPH | rain 1hr in | rain 24hr in | rain mn in | humidity % | barometer mb |
| 20260502193635 | 58 | 186 | 0.0 | 6.0 | 0.00 | 0.03 | 0.02 | 42 | 1011.7 |
| 20260502193139 | 58 | 296 | 0.0 | 0.0 | 0.00 | 0.03 | 0.02 | 41 | 1011.8 |
| 20260502192648 | 58 | 288 | 0.0 | 3.0 | 0.00 | 0.03 | 0.02 | 43 | 1012.0 |
| 20260502192152 | 58 | 296 | 0.0 | 0.0 | 0.00 | 0.03 | 0.02 | 43 | 1011.9 |
| 20260502191658 | 58 | 281 | 0.0 | 2.0 | 0.00 | 0.03 | 0.02 | 45 | 1012.1 |
| 20260502191151 | 58 | 286 | 0.0 | 0.0 | 0.00 | 0.03 | 0.02 | 42 | 1012.2 |
| 20260502190015 | 58 | 103 | 0.0 | 1.0 | 0.00 | 0.03 | 0.02 | 44 | 1012.3 |
| 20260502185520 | 57 | 294 | 0.0 | 6.0 | 0.00 | 0.03 | 0.02 | 44 | 1012.4 |
| 20260502184332 | 57 | 312 | 0.0 | 0.0 | 0.00 | 0.03 | 0.02 | 42 | 1012.6 |
| 20260502183841 | 57 | 296 | 0.0 | 0.0 | 0.00 | 0.03 | 0.02 | 43 | 1012.6 |
| 20260502183331 | 57 | 156 | 0.0 | 0.0 | 0.00 | 0.03 | 0.02 | 49 | 1012.6 |
| 20260502182821 | 56 | 252 | 0.0 | 6.0 | 0.00 | 0.03 | 0.02 | 44 | 1012.6 |
| 20260502182322 | 56 | 258 | 0.0 | 2.0 | 0.00 | 0.03 | 0.02 | 43 | 1012.7 |
| 20260502181158 | 57 | 289 | 0.0 | 0.0 | 0.00 | 0.03 | 0.02 | 42 | 1012.9 |
| 20260502180653 | 57 | 314 | 0.0 | 0.0 | 0.00 | 0.03 | 0.02 | 44 | 1012.8 |
| 20260502180134 | 58 | 246 | 0.0 | 1.0 | 0.00 | 0.03 | 0.02 | 42 | 1012.9 |
| 20260502164114 | 57 | 240 | 0.0 | 1.0 | 0.00 | 0.03 | 0.02 | 44 | 1013.4 |
| 20260502163623 | 57 | 332 | 0.0 | 1.0 | 0.00 | 0.03 | 0.02 | 48 | 1013.4 |
| 20260502162441 | 57 | 302 | 0.0 | 5.0 | 0.00 | 0.03 | 0.02 | 46 | 1013.5 |
| 20260502161928 | 57 | 338 | 0.0 | 2.0 | 0.00 | 0.03 | 0.02 | 49 | 1013.5 |
| 20260502161414 | 56 | 245 | 0.0 | 0.0 | 0.00 | 0.03 | 0.02 | 51 | 1013.5 |
| 20260502160855 | 56 | 277 | 0.0 | 0.0 | 0.00 | 0.03 | 0.02 | 52 | 1013.6 |
| 20260502160340 | 55 | 40 | 0.0 | 8.0 | 0.00 | 0.03 | 0.02 | 50 | 1013.7 |
| 20260502152010 | 54 | 301 | 0.0 | 5.0 | 0.00 | 0.03 | 0.02 | 55 | 1014.0 |
| 20260502151457 | 54 | 291 | 0.0 | 0.0 | 0.00 | 0.03 | 0.02 | 57 | 1014.0 |
| 20260502150959 | 53 | 283 | 0.0 | 3.0 | 0.00 | 0.03 | 0.02 | 57 | 1013.8 |
| 20260502150506 | 53 | 306 | 0.0 | 0.0 | 0.00 | 0.03 | 0.02 | 57 | 1013.8 |
| 20260502130630 | 47 | 267 | 0.0 | 1.0 | 0.00 | 0.03 | 0.02 | 49 | 1013.8 |
| 20260502130134 | 47 | 26 | 0.0 | 2.0 | 0.00 | 0.03 | 0.02 | 48 | 1013.7 |
| 20260502123616 | 45 | 300 | 0.0 | 0.0 | 0.00 | 0.03 | 0.02 | 45 | 1013.8 |
| 20260502123102 | 45 | 279 | 0.0 | 6.0 | 0.00 | 0.03 | 0.02 | 44 | 1013.9 |
| 20260502122545 | 45 | 209 | 0.0 | 8.0 | 0.00 | 0.03 | 0.02 | 44 | 1013.7 |
| 20260502122051 | 45 | 269 | 0.0 | 1.0 | 0.00 | 0.03 | 0.02 | 41 | 1013.6 |
| 20260502121044 | 45 | 27 | 0.0 | 1.0 | 0.00 | 0.03 | 0.02 | 40 | 1013.6 |
| 20260502120532 | 45 | 261 | 0.0 | 0.0 | 0.00 | 0.03 | 0.02 | 39 | 1013.6 |
| 20260502115542 | 45 | 296 | 0.0 | 0.0 | 0.00 | 0.03 | 0.02 | 35 | 1013.4 |
| 20260502115028 | 45 | 28 | 0.0 | 7.0 | 0.00 | 0.03 | 0.02 | 33 | 1013.5 |
| 20260502114537 | 45 | 295 | 0.0 | 0.0 | 0.00 | 0.03 | 0.02 | 31 | 1013.7 |
| 20260502114029 | 45 | 236 | 0.0 | 10.0 | 0.00 | 0.03 | 0.02 | 27 | 1013.8 |
| 20260502113540 | 45 | 239 | 0.0 | 0.0 | 0.00 | 0.03 | 0.02 | 25 | 1013.8 |
| 20260502113029 | 45 | 302 | 0.0 | 0.0 | 0.00 | 0.03 | 0.02 | 24 | 1013.8 |
| 20260502112042 | 45 | 282 | 0.0 | 0.0 | 0.00 | 0.03 | 0.02 | 22 | 1013.7 |
| 20260502111536 | 45 | 296 | 0.0 | 3.0 | 0.00 | 0.03 | 0.02 | 19 | 1013.7 |
| 20260502111039 | 45 | 350 | 0.0 | 0.0 | 0.00 | 0.03 | 0.02 | 19 | 1013.4 |
| 20260502110544 | 45 | 315 | 0.0 | 6.0 | 0.00 | 0.03 | 0.02 | 19 | 1013.5 |
| 20260502110035 | 45 | 300 | 0.0 | 5.0 | 0.00 | 0.03 | 0.02 | 18 | 1013.5 |
| 20260502105517 | 45 | 317 | 0.0 | 8.0 | 0.00 | 0.03 | 0.02 | 19 | 1013.4 |
| 20260502105016 | 45 | 289 | 0.0 | 0.0 | 0.00 | 0.03 | 0.02 | 18 | 1013.2 |
| 20260502104524 | 45 | 297 | 0.0 | 6.0 | 0.00 | 0.03 | 0.02 | 19 | 1013.2 |
| 20260502104005 | 45 | 256 | 0.0 | 0.0 | 0.00 | 0.03 | 0.02 | 20 | 1013.2 |
| 20260502102944 | 45 | 242 | 0.0 | 0.0 | 0.00 | 0.03 | 0.02 | 23 | 1013.0 |
| 20260502101937 | 45 | 296 | 0.0 | 3.0 | 0.00 | 0.03 | 0.02 | 26 | 1013.2 |
| 20260502100924 | 46 | 96 | 0.0 | 0.0 | 0.00 | 0.03 | 0.02 | 27 | 1013.1 |
| 20260502090806 | 47 | 243 | 0.0 | 0.0 | 0.00 | 0.03 | 0.02 | 34 | 1012.8 |
| 20260502090307 | 47 | 294 | 0.0 | 6.0 | 0.00 | 0.03 | 0.02 | 34 | 1012.7 |
| 20260502071526 | 48 | 290 | 0.0 | 2.0 | 0.00 | 0.02 | 0.01 | 1 | 1012.3 |
| 20260502071029 | 48 | 234 | 0.0 | 0.0 | 0.00 | 0.02 | 0.01 | 1 | 1012.3 |
| 20260502070516 | 48 | 309 | 0.0 | 0.0 | 0.00 | 0.02 | 0.01 | 1 | 1012.3 |
| 20260502070011 | 48 | 250 | 0.0 | 0.0 | 0.00 | 0.02 | 0.01 | 1 | 1012.2 |
| 20260502065502 | 48 | 263 | 0.0 | 0.0 | 0.00 | 0.02 | 0.01 | 1 | 1012.1 |
| 20260502064945 | 48 | 274 | 0.0 | 0.0 | 0.00 | 0.02 | 0.01 | 1 | 1012.2 |
| 20260502064433 | 48 | 274 | 0.0 | 0.0 | 0.00 | 0.02 | 0.01 | 1 | 1012.2 |
| 20260502063941 | 48 | 274 | 0.0 | 0.0 | 0.00 | 0.02 | 0.01 | 1 | 1012.3 |
| 20260502063425 | 48 | 274 | 0.0 | 0.0 | 0.00 | 0.02 | 0.01 | 1 | 1012.3 |
| 20260502062433 | 49 | 274 | 0.0 | 0.0 | 0.00 | 0.02 | 0.01 | 1 | 1012.4 |
| 20260502061932 | 49 | 274 | 0.0 | 0.0 | 0.00 | 0.02 | 0.01 | 1 | 1012.7 |
| 20260502061440 | 49 | 275 | 0.0 | 0.0 | 0.00 | 0.02 | 0.01 | 1 | 1012.6 |
| 20260502060948 | 49 | 276 | 0.0 | 0.0 | 0.00 | 0.02 | 0.01 | 1 | 1012.7 |
| 20260502060433 | 49 | 276 | 0.0 | 0.0 | 0.00 | 0.02 | 0.01 | 1 | 1012.6 |
| 20260502055930 | 49 | 276 | 0.0 | 0.0 | 0.00 | 0.02 | 0.01 | 1 | 1012.6 |
| 20260502055436 | 49 | 276 | 0.0 | 0.0 | 0.00 | 0.02 | 0.01 | 1 | 1012.8 |
| 20260502054941 | 49 | 276 | 0.0 | 0.0 | 0.00 | 0.02 | 0.01 | 1 | 1012.7 |
| 20260502054443 | 49 | 276 | 0.0 | 0.0 | 0.00 | 0.02 | 0.01 | 1 | 1012.8 |
| 20260502053933 | 50 | 276 | 0.0 | 0.0 | 0.00 | 0.02 | 0.01 | 1 | 1012.8 |
| 20260502052932 | 50 | 276 | 0.0 | 0.0 | 0.00 | 0.02 | 0.01 | 1 | 1012.9 |
| 20260502052422 | 50 | 276 | 0.0 | 0.0 | 0.00 | 0.02 | 0.01 | 1 | 1012.8 |
| 20260502051905 | 50 | 276 | 0.0 | 0.0 | 0.00 | 0.02 | 0.01 | 1 | 1012.8 |
| 20260502050321 | 51 | 277 | 0.0 | 0.0 | 0.00 | 0.02 | 0.01 | 1 | 1012.8 |
| 20260502045821 | 51 | 277 | 0.0 | 0.0 | 0.00 | 0.02 | 0.01 | 1 | 1012.8 |
| 20260502045305 | 51 | 292 | 0.0 | 0.0 | 0.00 | 0.02 | 0.01 | 1 | 1012.6 |
| 20260502044309 | 51 | 292 | 0.0 | 0.0 | 0.00 | 0.02 | 0.01 | 1 | 1012.7 |
| 20260502043807 | 52 | 292 | 0.0 | 0.0 | 0.00 | 0.02 | 0.01 | 1 | 1012.6 |
| 20260502042802 | 52 | 292 | 0.0 | 0.0 | 0.00 | 0.02 | 0.01 | 1 | 1012.5 |
| 20260502042248 | 52 | 292 | 0.0 | 0.0 | 0.00 | 0.02 | 0.01 | 1 | 1012.6 |
| 20260502041743 | 52 | 292 | 0.0 | 0.0 | 0.00 | 0.01 | 0.00 | 1 | 1012.6 |
| 20260502041245 | 52 | 292 | 0.0 | 0.0 | 0.00 | 0.01 | 0.00 | 1 | 1012.7 |
| 20260502040748 | 53 | 292 | 0.0 | 0.0 | 0.00 | 0.01 | 0.00 | 1 | 1012.7 |
| 20260502040237 | 53 | 292 | 0.0 | 0.0 | 0.00 | 0.01 | 0.00 | 1 | 1012.5 |
| 20260502035739 | 53 | 292 | 0.0 | 0.0 | 0.00 | 0.01 | 0.01 | 2 | 1012.7 |
| 20260502035231 | 53 | 292 | 0.0 | 0.0 | 0.00 | 0.01 | 0.01 | 7 | 1012.7 |
| 20260502034723 | 54 | 344 | 0.0 | 0.0 | 0.00 | 0.01 | 0.01 | 16 | 1012.5 |
| 20260502033722 | 54 | 240 | 0.0 | 0.0 | 0.00 | 0.01 | 0.01 | 29 | 1012.4 |
| 20260502032705 | 54 | 240 | 0.0 | 0.0 | 0.00 | 0.00 | 0.01 | 38 | 1012.3 |
| 20260502032157 | 55 | 240 | 0.0 | 0.0 | 0.00 | 0.00 | 0.00 | 42 | 1012.2 |
| 20260502031639 | 55 | 255 | 0.0 | 0.0 | 0.00 | 0.00 | 0.00 | 46 | 1012.1 |
| 20260502031141 | 55 | 255 | 0.0 | 0.0 | 0.00 | 0.00 | 0.00 | 50 | 1012.0 |
| 20260502030636 | 55 | 255 | 0.0 | 0.0 | 0.00 | 0.00 | 0.00 | 51 | 1011.9 |
| 20260502030129 | 55 | 255 | 0.0 | 0.0 | 0.00 | 0.00 | 0.00 | 54 | 1011.8 |
| 20260502025615 | 55 | 256 | 0.0 | 0.0 | 0.00 | 0.00 | 0.00 | 55 | 1011.6 |
| 20260502025102 | 56 | 256 | 0.0 | 0.0 | 0.00 | 0.00 | 0.00 | 54 | 1011.7 |
| 20260502024605 | 56 | 256 | 0.0 | 0.0 | 0.00 | 0.00 | 0.00 | 54 | 1011.8 |
| 20260502024047 | 56 | 256 | 0.0 | 0.0 | 0.00 | 0.00 | 0.00 | 55 | 1011.9 |
| 20260502023548 | 56 | 256 | 0.0 | 0.0 | 0.00 | 0.00 | 0.00 | 56 | 1011.8 |
| 20260502023051 | 56 | 256 | 0.0 | 0.0 | 0.00 | 0.00 | 0.00 | 57 | 1011.9 |
| 20260502022548 | 56 | 256 | 0.0 | 0.0 | 0.00 | 0.00 | 0.00 | 58 | 1012.1 |
| 20260502022050 | 56 | 155 | 0.0 | 0.0 | 0.00 | 0.00 | 0.00 | 57 | 1012.1 |
| 20260502021536 | 57 | 165 | 0.0 | 0.0 | 0.00 | 0.00 | 0.00 | 57 | 1012.0 |
| 20260502021030 | 57 | 144 | 0.0 | 0.0 | 0.00 | 0.00 | 0.00 | 57 | 1011.9 |
| 20260502020533 | 57 | 154 | 0.0 | 0.0 | 0.00 | 0.00 | 0.00 | 56 | 1011.6 |
| 20260502020039 | 57 | 151 | 0.0 | 3.0 | 0.00 | 0.00 | 0.00 | 56 | 1011.6 |
| 20260502015525 | 57 | 165 | 0.0 | 0.0 | 0.00 | 0.00 | 0.00 | 56 | 1011.4 |
| 20260502015034 | 57 | 167 | 0.0 | 0.0 | 0.00 | 0.00 | 0.00 | 55 | 1011.3 |
| 20260502014524 | 58 | 167 | 0.0 | 2.0 | 0.00 | 0.00 | 0.00 | 55 | 1011.3 |
| 20260502014017 | 58 | 161 | 0.0 | 0.0 | 0.00 | 0.00 | 0.00 | 55 | 1011.3 |
| 20260502013511 | 58 | 155 | 0.0 | 2.0 | 0.00 | 0.00 | 0.00 | 54 | 1011.1 |
| 20260502012953 | 58 | 163 | 0.0 | 0.0 | 0.00 | 0.00 | 0.00 | 55 | 1011.0 |
| 20260502012445 | 58 | 163 | 0.0 | 0.0 | 0.00 | 0.00 | 0.00 | 54 | 1010.9 |
| 20260502011929 | 59 | 163 | 0.0 | 0.0 | 0.00 | 0.00 | 0.00 | 53 | 1010.9 |
| 20260502011420 | 59 | 163 | 0.0 | 0.0 | 0.00 | 0.00 | 0.00 | 52 | 1010.9 |
| 20260502010927 | 59 | 165 | 0.0 | 0.0 | 0.00 | 0.00 | 0.00 | 51 | 1010.8 |
| 20260502010410 | 59 | 163 | 0.0 | 0.0 | 0.00 | 0.00 | 0.00 | 49 | 1010.7 |
| 20260502005852 | 59 | 153 | 0.0 | 0.0 | 0.00 | 0.00 | 0.00 | 49 | 1010.7 |
| 20260502005353 | 59 | 140 | 0.0 | 0.0 | 0.00 | 0.00 | 0.00 | 49 | 1010.6 |
| 20260502004840 | 59 | 152 | 0.0 | 0.0 | 0.00 | 0.00 | 0.00 | 49 | 1010.5 |
| 20260502004326 | 59 | 150 | 0.0 | 1.0 | 0.00 | 0.00 | 0.00 | 49 | 1010.6 |
| 20260502003829 | 59 | 146 | 0.0 | 1.0 | 0.00 | 0.00 | 0.00 | 49 | 1010.7 |
| 20260502003319 | 60 | 164 | 0.0 | 0.0 | 0.00 | 0.00 | 0.00 | 50 | 1010.6 |
| 20260502002810 | 60 | 164 | 0.0 | 0.0 | 0.00 | 0.00 | 0.00 | 49 | 1010.6 |
| 20260502002317 | 60 | 164 | 0.0 | 0.0 | 0.00 | 0.00 | 0.00 | 48 | 1010.6 |
| 20260502001823 | 60 | 164 | 0.0 | 0.0 | 0.00 | 0.00 | 0.00 | 48 | 1010.4 |
| 20260502000815 | 60 | 163 | 0.0 | 0.0 | 0.00 | 0.00 | 0.00 | 47 | 1010.3 |
| 20260502000312 | 60 | 164 | 0.0 | 0.0 | 0.00 | 0.00 | 0.00 | 46 | 1010.3 |
| 20260501235823 | 60 | 164 | 0.0 | 0.0 | 0.00 | 0.00 | 0.00 | 46 | 1010.2 |
| 20260501235318 | 60 | 165 | 0.0 | 0.0 | 0.00 | 0.00 | 0.00 | 46 | 1010.2 |
| 20260501234808 | 60 | 161 | 0.0 | 0.0 | 0.00 | 0.00 | 0.00 | 45 | 1010.1 |
| 20260501234254 | 61 | 163 | 0.0 | 0.0 | 0.00 | 0.00 | 0.00 | 45 | 1010.0 |
| 20260501233751 | 61 | 157 | 0.0 | 0.0 | 0.00 | 0.00 | 0.00 | 45 | 1009.9 |
| 20260501233237 | 61 | 155 | 0.0 | 0.0 | 0.00 | 0.00 | 0.00 | 45 | 1010.0 |
| 20260501232739 | 61 | 155 | 0.0 | 0.0 | 0.00 | 0.00 | 0.00 | 45 | 1009.9 |
| 20260501232246 | 61 | 151 | 0.0 | 0.0 | 0.00 | 0.00 | 0.00 | 45 | 1009.9 |
| 20260501231751 | 61 | 149 | 0.0 | 0.0 | 0.00 | 0.00 | 0.00 | 46 | 1010.1 |
| 20260501231241 | 61 | 149 | 0.0 | 0.0 | 0.00 | 0.00 | 0.00 | 44 | 1010.1 |
| 20260501230729 | 61 | 149 | 0.0 | 0.0 | 0.00 | 0.00 | 0.00 | 44 | 1010.2 |
| 20260501230214 | 61 | 149 | 0.0 | 0.0 | 0.00 | 0.00 | 0.00 | 43 | 1010.1 |
| 20260501225702 | 61 | 147 | 0.0 | 0.0 | 0.00 | 0.00 | 0.00 | 43 | 1010.1 |
| 20260501225206 | 62 | 147 | 0.0 | 0.0 | 0.00 | 0.00 | 0.00 | 42 | 1010.1 |
| 20260501224659 | 62 | 141 | 0.0 | 1.0 | 0.00 | 0.00 | 0.00 | 42 | 1010.1 |
| 20260501224151 | 62 | 148 | 0.0 | 4.0 | 0.00 | 0.00 | 0.00 | 41 | 1010.0 |
| 20260501223636 | 62 | 148 | 0.0 | 0.0 | 0.00 | 0.00 | 0.00 | 41 | 1010.0 |
| 20260501223142 | 62 | 203 | 0.0 | 0.0 | 0.00 | 0.00 | 0.00 | 41 | 1010.1 |
| 20260501222628 | 62 | 163 | 0.0 | 4.0 | 0.00 | 0.00 | 0.00 | 40 | 1010.1 |
| 20260501222128 | 63 | 136 | 0.0 | 4.0 | 0.00 | 0.00 | 0.00 | 39 | 1010.1 |
| 20260501221624 | 63 | 138 | 0.0 | 0.0 | 0.00 | 0.00 | 0.00 | 39 | 1010.1 |
| 20260501221119 | 64 | 149 | 0.0 | 0.0 | 0.00 | 0.00 | 0.00 | 39 | 1010.0 |
| 20260501220621 | 64 | 169 | 0.0 | 0.0 | 0.00 | 0.00 | 0.00 | 38 | 1010.1 |
| 20260501215132 | 65 | 127 | 0.0 | 6.0 | 0.00 | 0.00 | 0.00 | 38 | 1010.0 |
| 20260501214632 | 65 | 161 | 0.0 | 10.0 | 0.00 | 0.00 | 0.00 | 40 | 1010.1 |
| 20260501213635 | 65 | 161 | 0.0 | 5.0 | 0.00 | 0.00 | 0.00 | 39 | 1010.1 |
| 20260501213117 | 65 | 141 | 0.0 | 3.0 | 0.00 | 0.00 | 0.00 | 40 | 1010.1 |
| 20260501212600 | 65 | 151 | 0.0 | 1.0 | 0.00 | 0.00 | 0.00 | 40 | 1010.1 |
| 20260501212105 | 66 | 178 | 0.0 | 0.0 | 0.00 | 0.00 | 0.00 | 40 | 1010.1 |
| 20260501211547 | 66 | 149 | 0.0 | 8.0 | 0.00 | 0.00 | 0.00 | 40 | 1010.2 |
| 20260501211053 | 66 | 153 | 0.0 | 0.0 | 0.00 | 0.00 | 0.00 | 39 | 1010.4 |
| 20260501210051 | 66 | 167 | 0.0 | 6.0 | 0.00 | 0.00 | 0.00 | 38 | 1010.4 |
| 20260501205601 | 66 | 146 | 0.0 | 0.0 | 0.00 | 0.00 | 0.00 | 40 | 1010.4 |
| 20260501205045 | 66 | 163 | 0.0 | 0.0 | 0.00 | 0.00 | 0.00 | 40 | 1010.3 |
| 20260501204545 | 66 | 142 | 0.0 | 0.0 | 0.00 | 0.00 | 0.00 | 40 | 1010.3 |
| 20260501204033 | 67 | 203 | 0.0 | 6.0 | 0.00 | 0.00 | 0.00 | 39 | 1010.4 |
| 20260501203028 | 66 | 142 | 0.0 | 9.0 | 0.00 | 0.00 | 0.00 | 39 | 1010.3 |
| 20260501202526 | 67 | 140 | 0.0 | 7.0 | 0.00 | 0.00 | 0.00 | 39 | 1010.4 |
| 20260501202017 | 67 | 140 | 0.0 | 0.0 | 0.00 | 0.00 | 0.00 | 39 | 1010.4 |
| 20260501201504 | 67 | 128 | 0.0 | 6.0 | 0.00 | 0.00 | 0.00 | 38 | 1010.5 |
| 20260501200455 | 67 | 157 | 0.0 | 6.0 | 0.00 | 0.00 | 0.00 | 38 | 1010.5 |
| 20260501194925 | 66 | 144 | 0.0 | 8.0 | 0.00 | 0.00 | 0.00 | 39 | 1010.7 |
| 20260501194434 | 66 | 160 | 0.0 | 0.0 | 0.00 | 0.00 | 0.00 | 40 | 1010.9 |
| 20260501193924 | 66 | 175 | 0.0 | 8.0 | 0.00 | 0.00 | 0.00 | 39 | 1011.0 |